When you browse on this site, cookies collect data to enhance your experience and personalize the content and advertising you see.
Visit our Privacy Policy to learn more. By continuing to use the site, you agree to this use of cookies and data.
  • In Schweiz
  • Länderverzeichnis
  • Für 7 Tage
  • Wassertemperatur
  • Wetterkarte
  • Widgets
  • user-avatar
    Anmelden

    Stündliche Wetter Brusenoe

    Heute, 23 September, Montag

    Zeit Temperatur Niederschläge Wind Luftdruck Luftfeuchtigkeit
    00:00 -1°C° 0 mm 6 m/S 738 mmHg 82%
    01:00 -1°C° 0 mm 6 m/S 738 mmHg 83%
    02:00 -1°C° 0 mm 6 m/S 739 mmHg 85%
    03:00 0°C° 0 mm 5 m/S 739 mmHg 89%
    04:00 0°C° 0 mm 5 m/S 740 mmHg 86%
    05:00 0°C° 0 mm 5 m/S 740 mmHg 84%
    06:00 0°C° 0 mm 5 m/S 741 mmHg 82%
    07:00 +1°C° 0 mm 5 m/S 741 mmHg 77%
    08:00 +2°C° 0 mm 5 m/S 742 mmHg 72%
    09:00 +3°C° 0 mm 6 m/S 743 mmHg 66%
    10:00 +4°C° 0 mm 6 m/S 743 mmHg 63%
    11:00 +5°C° 0 mm 6 m/S 743 mmHg 60%
    12:00 +7°C° 0 mm 6 m/S 743 mmHg 58%
    13:00 +7°C° 0 mm 6 m/S 743 mmHg 57%
    14:00 +7°C° 0 mm 6 m/S 744 mmHg 56%
    15:00 +8°C° 0 mm 6 m/S 744 mmHg 56%
    16:00 +7°C° 0 mm 5 m/S 744 mmHg 59%
    17:00 +6°C° 0 mm 4 m/S 744 mmHg 62%
    18:00 +6°C° 0 mm 4 m/S 744 mmHg 65%
    19:00 +5°C° 0 mm 4 m/S 745 mmHg 67%
    20:00 +5°C° 0 mm 4 m/S 745 mmHg 69%
    21:00 +4°C° 0 mm 4 m/S 745 mmHg 72%
    22:00 +3°C° 0 mm 3 m/S 745 mmHg 74%
    23:00 +2°C° 0 mm 3 m/S 745 mmHg 77%

    Morgen, 24 September, Dienstag

    Zeit Temperatur Niederschläge Wind Luftdruck Luftfeuchtigkeit
    00:00 +3°C° 0 mm 2 m/S 745 mmHg 79%
    01:00 +2°C° 0 mm 2 m/S 746 mmHg 79%
    02:00 +2°C° 0 mm 2 m/S 746 mmHg 80%
    03:00 +2°C° 0 mm 2 m/S 746 mmHg 80%
    04:00 +1°C° 0 mm 2 m/S 746 mmHg 81%
    05:00 +1°C° 0 mm 2 m/S 746 mmHg 82%
    06:00 +1°C° 0 mm 2 m/S 746 mmHg 83%
    07:00 +1°C° 0 mm 3 m/S 746 mmHg 77%
    08:00 +2°C° 0 mm 3 m/S 746 mmHg 70%
    09:00 +4°C° 0 mm 3 m/S 747 mmHg 64%
    10:00 +4°C° 0 mm 4 m/S 746 mmHg 61%
    11:00 +5°C° 0 mm 4 m/S 746 mmHg 58%
    12:00 +6°C° 0 mm 4 m/S 746 mmHg 55%
    13:00 +6°C° 0 mm 4 m/S 746 mmHg 56%
    14:00 +6°C° 0 mm 4 m/S 746 mmHg 57%
    15:00 +6°C° 0 mm 4 m/S 746 mmHg 57%
    16:00 +6°C° 0 mm 4 m/S 746 mmHg 60%
    17:00 +5°C° 0 mm 3 m/S 746 mmHg 63%
    18:00 +4°C° 0 mm 3 m/S 745 mmHg 66%
    19:00 +4°C° 0 mm 3 m/S 746 mmHg 69%
    20:00 +4°C° 0 mm 2 m/S 746 mmHg 73%
    21:00 +3°C° 0 mm 2 m/S 746 mmHg 76%
    22:00 +3°C° 0 mm 2 m/S 746 mmHg 79%
    23:00 +2°C° 0 mm 2 m/S 746 mmHg 82%

    übermorgen, 25 September, Mittwoch

    Zeit Temperatur Niederschläge Wind Luftdruck Luftfeuchtigkeit
    00:00 +2°C° 0 mm 2 m/S 746 mmHg 84%
    01:00 +2°C° 0 mm 2 m/S 746 mmHg 86%
    02:00 +1°C° 0 mm 2 m/S 746 mmHg 87%
    03:00 +1°C° 0 mm 2 m/S 746 mmHg 88%
    04:00 +1°C° 0 mm 2 m/S 746 mmHg 89%
    05:00 +1°C° 0 mm 2 m/S 746 mmHg 90%
    06:00 -1°C° 0 mm 2 m/S 747 mmHg 91%
    07:00 +2°C° 0 mm 2 m/S 747 mmHg 85%
    08:00 +3°C° 0 mm 2 m/S 747 mmHg 79%
    09:00 +4°C° 0 mm 2 m/S 747 mmHg 73%
    10:00 +6°C° 0 mm 2 m/S 747 mmHg 67%
    11:00 +7°C° 0 mm 2 m/S 747 mmHg 62%
    12:00 +8°C° 0 mm 3 m/S 747 mmHg 56%
    13:00 +9°C° 0.1 mm 3 m/S 747 mmHg 55%
    14:00 +9°C° 0.1 mm 3 m/S 747 mmHg 54%
    15:00 +9°C° 0.1 mm 3 m/S 747 mmHg 52%
    16:00 +8°C° 0 mm 3 m/S 746 mmHg 57%
    17:00 +8°C° 0 mm 2 m/S 746 mmHg 61%
    18:00 +7°C° 0 mm 2 m/S 746 mmHg 65%
    19:00 +7°C° 0 mm 1 m/S 746 mmHg 67%
    20:00 +7°C° 0 mm 1 m/S 746 mmHg 68%
    21:00 +6°C° 0 mm 1 m/S 746 mmHg 69%
    22:00 +6°C° 0 mm 1 m/S 746 mmHg 70%
    23:00 +6°C° 0 mm 1 m/S 746 mmHg 71%

    26 September, Donnerstag

    Zeit Temperatur Niederschläge Wind Luftdruck Luftfeuchtigkeit
    00:00 +6°C° 0 mm 1 m/S 746 mmHg 72%
    01:00 +6°C° 0 mm 1 m/S 746 mmHg 73%
    02:00 +6°C° 0 mm 1 m/S 746 mmHg 74%
    03:00 +6°C° 0 mm 1 m/S 746 mmHg 76%
    04:00 +5°C° 0 mm 1 m/S 746 mmHg 79%
    05:00 +5°C° 0 mm 1 m/S 746 mmHg 82%
    06:00 +4°C° 0 mm 1 m/S 746 mmHg 85%
    07:00 +5°C° 0 mm 1 m/S 746 mmHg 80%
    08:00 +7°C° 0 mm 1 m/S 746 mmHg 75%
    09:00 +8°C° 0 mm 1 m/S 747 mmHg 70%
    10:00 +9°C° 0 mm 1 m/S 747 mmHg 64%
    11:00 +10°C° 0 mm 1 m/S 747 mmHg 59%
    12:00 +11°C° 0 mm 1 m/S 747 mmHg 53%
    13:00 +11°C° 0 mm 1 m/S 747 mmHg 52%
    14:00 +11°C° 0 mm 1 m/S 746 mmHg 51%
    15:00 +10°C° 0 mm 2 m/S 746 mmHg 50%
    16:00 +11°C° 0 mm 1 m/S 746 mmHg 53%
    17:00 +10°C° 0 mm 1 m/S 746 mmHg 56%
    18:00 +10°C° 0 mm 1 m/S 746 mmHg 59%
    19:00 +9°C° 0 mm 1 m/S 746 mmHg 61%
    20:00 +8°C° 0 mm 0 m/S 746 mmHg 62%
    21:00 +8°C° 0 mm 0 m/S 746 mmHg 63%
    22:00 +7°C° 0 mm 0 m/S 746 mmHg 65%
    23:00 +7°C° 0 mm 0 m/S 746 mmHg 67%

    27 September, Freitag

    Zeit Temperatur Niederschläge Wind Luftdruck Luftfeuchtigkeit
    00:00 +7°C° 0 mm 1 m/S 746 mmHg 68%
    01:00 +6°C° 0 mm 0 m/S 746 mmHg 68%
    02:00 +6°C° 0 mm 0 m/S 746 mmHg 68%
    03:00 +6°C° 0 mm 0 m/S 746 mmHg 68%
    04:00 +6°C° 0 mm 0 m/S 746 mmHg 71%
    05:00 +6°C° 0 mm 1 m/S 746 mmHg 75%
    06:00 +5°C° 0 mm 1 m/S 746 mmHg 78%
    07:00 +6°C° 0 mm 1 m/S 746 mmHg 73%
    08:00 +6°C° 0 mm 2 m/S 746 mmHg 68%
    09:00 +7°C° 0 mm 2 m/S 746 mmHg 63%
    10:00 +9°C° 0 mm 2 m/S 746 mmHg 59%
    11:00 +10°C° 0 mm 3 m/S 746 mmHg 54%
    12:00 +11°C° 0 mm 3 m/S 746 mmHg 49%
    13:00 +11°C° 0 mm 3 m/S 746 mmHg 50%
    14:00 +11°C° 0 mm 3 m/S 746 mmHg 50%
    15:00 +12°C° 0 mm 4 m/S 745 mmHg 51%
    16:00 +11°C° 0 mm 3 m/S 745 mmHg 56%
    17:00 +10°C° 0 mm 3 m/S 745 mmHg 62%
    18:00 +9°C° 0 mm 2 m/S 745 mmHg 68%
    19:00 +8°C° 0 mm 2 m/S 746 mmHg 70%
    20:00 +8°C° 0 mm 2 m/S 746 mmHg 73%
    21:00 +7°C° 0 mm 2 m/S 746 mmHg 76%
    22:00 +7°C° 0 mm 2 m/S 746 mmHg 79%
    23:00 +7°C° 0 mm 2 m/S 747 mmHg 81%

    28 September, Samstag

    Zeit Temperatur Niederschläge Wind Luftdruck Luftfeuchtigkeit
    00:00 +7°C° 0 mm 2 m/S 747 mmHg 84%
    01:00 +6°C° 0 mm 2 m/S 747 mmHg 85%
    02:00 +6°C° 0 mm 2 m/S 747 mmHg 87%
    03:00 +6°C° 0 mm 2 m/S 747 mmHg 88%
    04:00 +6°C° 0 mm 2 m/S 747 mmHg 90%
    05:00 +5°C° 0 mm 2 m/S 747 mmHg 92%
    06:00 +4°C° 0 mm 2 m/S 748 mmHg 94%
    07:00 +6°C° 0 mm 2 m/S 748 mmHg 90%
    08:00 +7°C° 0 mm 2 m/S 748 mmHg 85%
    09:00 +8°C° 0 mm 2 m/S 748 mmHg 80%
    10:00 +9°C° 0 mm 2 m/S 748 mmHg 75%
    11:00 +11°C° 0 mm 1 m/S 748 mmHg 69%
    12:00 +12°C° 0 mm 1 m/S 749 mmHg 63%
    13:00 +13°C° 0 mm 1 m/S 748 mmHg 61%
    14:00 +13°C° 0 mm 2 m/S 748 mmHg 60%
    15:00 +13°C° 0 mm 2 m/S 748 mmHg 58%
    16:00 +13°C° 0 mm 1 m/S 748 mmHg 61%
    17:00 +13°C° 0 mm 1 m/S 748 mmHg 63%
    18:00 +12°C° 0 mm 1 m/S 748 mmHg 66%
    19:00 +12°C° 0 mm 1 m/S 748 mmHg 66%
    20:00 +12°C° 0 mm 1 m/S 748 mmHg 66%
    21:00 +11°C° 0 mm 1 m/S 748 mmHg 66%
    22:00 +11°C° 0 mm 1 m/S 748 mmHg 66%
    23:00 +10°C° 0 mm 2 m/S 748 mmHg 65%
    Mehr zeigen